• In Netherlands
  • List of Countries
  • For 7 days
  • Water Temperature
  • Satellite Maps
  • Weather Map
  • Weather Widgets
  • user-avatar
    Login

    Hourly Weather Lezhe

    Today, 23 June, Friday

    Time Temperature Precipitation Wind Pressure Humidity
    00:00 +17°C° 0 mm 0 mps 739 mmHg 82%
    01:00 +17°C° 0 mm 0 mps 739 mmHg 83%
    02:00 +16°C° 0 mm 0 mps 739 mmHg 83%
    03:00 +16°C° 0 mm 0 mps 739 mmHg 84%
    04:00 +16°C° 0 mm 0 mps 738 mmHg 85%
    05:00 +19°C° 0 mm 0 mps 739 mmHg 74%
    06:00 +23°C° 0 mm 0 mps 739 mmHg 63%
    07:00 +26°C° 0 mm 0 mps 739 mmHg 52%
    08:00 +30°C° 0 mm 1 mps 739 mmHg 46%
    09:00 +31°C° 0 mm 1 mps 739 mmHg 41%
    10:00 +34°C° 0 mm 2 mps 739 mmHg 36%
    11:00 +34°C° 0 mm 2 mps 739 mmHg 35%
    12:00 +35°C° 0 mm 3 mps 739 mmHg 35%
    13:00 +35°C° 0 mm 3 mps 739 mmHg 35%
    14:00 +34°C° 0.1 mm 3 mps 738 mmHg 37%
    15:00 +34°C° 0.1 mm 3 mps 738 mmHg 38%
    16:00 +33°C° 0.1 mm 3 mps 738 mmHg 40%
    17:00 +29°C° 0 mm 2 mps 738 mmHg 51%
    18:00 +26°C° 0 mm 1 mps 738 mmHg 62%
    19:00 +24°C° 0 mm 1 mps 738 mmHg 73%
    20:00 +22°C° 0 mm 1 mps 738 mmHg 75%
    21:00 +19°C° 0 mm 0 mps 738 mmHg 78%
    22:00 +18°C° 0 mm 0 mps 738 mmHg 80%
    23:00 +18°C° 0 mm 0 mps 738 mmHg 80%

    Tomorrow, 24 June, Saturday

    Time Temperature Precipitation Wind Pressure Humidity
    00:00 +17°C° 0 mm 0 mps 738 mmHg 80%
    01:00 +17°C° 0 mm 0 mps 738 mmHg 80%
    02:00 +17°C° 0 mm 0 mps 738 mmHg 81%
    03:00 +17°C° 0 mm 0 mps 738 mmHg 82%
    04:00 +17°C° 0 mm 0 mps 738 mmHg 83%
    05:00 +20°C° 0 mm 0 mps 738 mmHg 72%
    06:00 +23°C° 0 mm 0 mps 738 mmHg 61%
    07:00 +26°C° 0 mm 0 mps 739 mmHg 51%
    08:00 +30°C° 0 mm 1 mps 739 mmHg 46%
    09:00 +32°C° 0 mm 1 mps 739 mmHg 42%
    10:00 +34°C° 0 mm 1 mps 739 mmHg 37%
    11:00 +35°C° 0.1 mm 2 mps 739 mmHg 37%
    12:00 +36°C° 0.1 mm 2 mps 738 mmHg 36%
    13:00 +36°C° 0.1 mm 3 mps 738 mmHg 36%
    14:00 +36°C° 0.2 mm 3 mps 738 mmHg 38%
    15:00 +35°C° 0.2 mm 3 mps 737 mmHg 39%
    16:00 +35°C° 0.2 mm 2 mps 737 mmHg 41%
    17:00 +31°C° 0.2 mm 2 mps 737 mmHg 52%
    18:00 +28°C° 0.2 mm 1 mps 737 mmHg 62%
    19:00 +26°C° 0.2 mm 1 mps 737 mmHg 73%
    20:00 +25°C° 0.1 mm 1 mps 737 mmHg 74%
    21:00 +24°C° 0.1 mm 1 mps 737 mmHg 74%
    22:00 +23°C° 0.1 mm 1 mps 738 mmHg 75%
    23:00 +23°C° 0.2 mm 1 mps 737 mmHg 76%

    Day after tomorrow, 25 June, Sunday

    Time Temperature Precipitation Wind Pressure Humidity
    00:00 +22°C° 0.2 mm 1 mps 737 mmHg 76%
    01:00 +22°C° 0.2 mm 1 mps 737 mmHg 77%
    02:00 +22°C° 0.1 mm 1 mps 737 mmHg 77%
    03:00 +21°C° 0.1 mm 1 mps 737 mmHg 78%
    04:00 +21°C° 0.1 mm 1 mps 737 mmHg 79%
    05:00 +24°C° 0 mm 1 mps 737 mmHg 71%
    06:00 +27°C° 0 mm 1 mps 737 mmHg 63%
    07:00 +27°C° 0 mm 0 mps 737 mmHg 55%
    08:00 +31°C° 0 mm 1 mps 737 mmHg 49%
    09:00 +33°C° 0 mm 1 mps 737 mmHg 44%
    10:00 +35°C° 0 mm 1 mps 737 mmHg 38%
    11:00 +36°C° 0.2 mm 2 mps 737 mmHg 38%
    12:00 +36°C° 0.2 mm 2 mps 736 mmHg 37%
    13:00 +36°C° 0.2 mm 3 mps 736 mmHg 37%
    14:00 +36°C° 0.2 mm 3 mps 736 mmHg 38%
    15:00 +35°C° 0.2 mm 2 mps 736 mmHg 40%
    16:00 +35°C° 0.2 mm 2 mps 735 mmHg 41%
    17:00 +31°C° 0 mm 2 mps 735 mmHg 52%
    18:00 +28°C° 0 mm 1 mps 735 mmHg 62%
    19:00 +25°C° 0 mm 1 mps 735 mmHg 72%
    20:00 +24°C° 0 mm 1 mps 735 mmHg 75%
    21:00 +23°C° 0 mm 1 mps 736 mmHg 78%
    22:00 +22°C° 0 mm 1 mps 736 mmHg 81%
    23:00 +21°C° 0 mm 1 mps 736 mmHg 82%

    26 June, Monday

    Time Temperature Precipitation Wind Pressure Humidity
    00:00 +21°C° 0 mm 1 mps 736 mmHg 83%
    01:00 +18°C° 0 mm 0 mps 735 mmHg 84%
    02:00 +18°C° 0 mm 0 mps 735 mmHg 84%
    03:00 +20°C° 0 mm 1 mps 735 mmHg 84%
    04:00 +19°C° 0 mm 1 mps 735 mmHg 84%
    05:00 +23°C° 0 mm 1 mps 736 mmHg 72%
    06:00 +26°C° 0 mm 1 mps 736 mmHg 61%
    07:00 +29°C° 0 mm 1 mps 736 mmHg 50%
    08:00 +31°C° 0 mm 1 mps 736 mmHg 44%
    09:00 +33°C° 0 mm 1 mps 736 mmHg 38%
    10:00 +34°C° 0 mm 1 mps 737 mmHg 33%
    11:00 +36°C° 0.1 mm 2 mps 736 mmHg 32%
    12:00 +36°C° 0.1 mm 2 mps 736 mmHg 32%
    13:00 +37°C° 0.1 mm 3 mps 736 mmHg 32%
    14:00 +36°C° 0.1 mm 2 mps 736 mmHg 34%
    15:00 +35°C° 0.1 mm 2 mps 736 mmHg 36%
    16:00 +35°C° 0.1 mm 2 mps 736 mmHg 38%
    17:00 +31°C° 0.1 mm 2 mps 736 mmHg 50%
    18:00 +28°C° 0.1 mm 1 mps 736 mmHg 62%
    19:00 +25°C° 0.1 mm 1 mps 736 mmHg 73%
    20:00 +24°C° 0.1 mm 1 mps 736 mmHg 75%
    21:00 +23°C° 0.1 mm 1 mps 736 mmHg 76%
    22:00 +23°C° 0.1 mm 1 mps 737 mmHg 77%
    23:00 +22°C° 0 mm 1 mps 737 mmHg 78%

    27 June, Tuesday

    Time Temperature Precipitation Wind Pressure Humidity
    00:00 +22°C° 0 mm 1 mps 736 mmHg 79%
    01:00 +22°C° 0 mm 1 mps 736 mmHg 79%
    02:00 +21°C° 0 mm 1 mps 736 mmHg 80%
    03:00 +21°C° 0 mm 1 mps 736 mmHg 81%
    04:00 +21°C° 0 mm 1 mps 736 mmHg 82%
    05:00 +24°C° 0 mm 1 mps 736 mmHg 73%
    06:00 +26°C° 0 mm 1 mps 737 mmHg 64%
    07:00 +29°C° 0 mm 1 mps 737 mmHg 55%
    08:00 +31°C° 0 mm 1 mps 737 mmHg 48%
    09:00 +33°C° 0 mm 1 mps 737 mmHg 42%
    10:00 +35°C° 0 mm 1 mps 737 mmHg 35%
    11:00 +36°C° 0 mm 2 mps 737 mmHg 34%
    12:00 +36°C° 0 mm 2 mps 736 mmHg 32%
    13:00 +37°C° 0 mm 3 mps 736 mmHg 31%
    14:00 +36°C° 0 mm 2 mps 736 mmHg 33%
    15:00 +36°C° 0 mm 2 mps 736 mmHg 35%
    16:00 +35°C° 0 mm 2 mps 736 mmHg 36%
    17:00 +31°C° 0 mm 1 mps 736 mmHg 47%
    18:00 +28°C° 0 mm 1 mps 736 mmHg 58%
    19:00 +25°C° 0 mm 1 mps 736 mmHg 69%
    20:00 +24°C° 0 mm 1 mps 736 mmHg 71%
    21:00 +23°C° 0 mm 1 mps 736 mmHg 73%
    22:00 +22°C° 0 mm 1 mps 736 mmHg 75%
    23:00 +22°C° 0 mm 1 mps 736 mmHg 75%

    28 June, Wednesday

    Time Temperature Precipitation Wind Pressure Humidity
    00:00 +21°C° 0 mm 1 mps 736 mmHg 75%
    01:00 +21°C° 0 mm 1 mps 736 mmHg 75%
    02:00 +21°C° 0 mm 1 mps 736 mmHg 75%
    03:00 +21°C° 0 mm 1 mps 735 mmHg 75%
    04:00 +20°C° 0 mm 1 mps 735 mmHg 75%
    05:00 +24°C° 0 mm 1 mps 736 mmHg 65%
    06:00 +27°C° 0 mm 1 mps 736 mmHg 55%
    07:00 +30°C° 0 mm 1 mps 736 mmHg 46%
    08:00 +32°C° 0 mm 1 mps 736 mmHg 41%
    09:00 +34°C° 0 mm 2 mps 736 mmHg 37%
    10:00 +36°C° 0 mm 2 mps 736 mmHg 33%
    11:00 +36°C° 0 mm 2 mps 735 mmHg 32%
    12:00 +37°C° 0 mm 3 mps 735 mmHg 31%
    13:00 +37°C° 0 mm 3 mps 735 mmHg 30%
    14:00 +37°C° 0 mm 3 mps 734 mmHg 31%
    15:00 +36°C° 0 mm 3 mps 734 mmHg 33%
    16:00 +35°C° 0 mm 3 mps 734 mmHg 34%
    17:00 +31°C° 0 mm 2 mps 734 mmHg 45%
    18:00 +28°C° 0 mm 2 mps 734 mmHg 56%
    19:00 +25°C° 0 mm 2 mps 734 mmHg 68%
    20:00 +24°C° 0 mm 2 mps 734 mmHg 70%
    21:00 +23°C° 0 mm 1 mps 734 mmHg 72%
    22:00 +22°C° 0 mm 1 mps 735 mmHg 75%
    23:00 +22°C° 0 mm 1 mps 735 mmHg 73%
    Show more